Danbury, CT

1:38 PM EDT on October 21, 2017 (GMT -0400)
Danbury Municipal

Weather History for KDXR - September, 2013

Change the Weather History Date:

Saturday, September 28, 2013

  Actual Average Record
Temperature  
Mean Temperature 56 °F -  
Max Temperature 72 °F 68 °F 82 °F (1948)
Min Temperature 42 °F 47 °F 29 °F (1957)
Degree Days  
Heating Degree Days 8    
Growing Degree Days 6 (Base 50)    
Moisture  
Dew Point 46 °F    
Average Humidity 82    
Maximum Humidity 93    
Minimum Humidity 44    
Precipitation  
Precipitation 0.00 in - - ()
Sea Level Pressure  
Sea Level Pressure 30.31 in    
Wind  
Wind Speed 1 mph (East)    
Max Wind Speed 8 mph    
Max Gust Speed -    
Visibility 6 miles    
Events Fog , Rain    
Averages and records for this station are not official NWS values.
T = Trace of Precipitation, MM = Missing Value Source: NWS Daily Summary

Daily Weather History Graph

Daily Weather History Graph

Search for Another Location

Airport or City:

Trip Planner

Search our weather history database for the weather conditions in past years. The results will help you decide how hot, cold, wet, or windy it might be!

Date:

Astronomy

Sep. 28, 2013 Rise Set
Actual Time 6:47 AM EDT 6:40 PM EDT
Civil Twilight 6:20 AM EDT 7:07 PM EDT
Nautical Twilight 5:48 AM EDT 7:40 PM EDT
Astronomical Twilight 5:15 AM EDT 8:12 PM EDT
Moon 12:29 AM EDT (9/28) 3:00 PM EDT (9/28)
Length of Visible Light 12h 47m
Length of Day
11h 52m
Last Quarter, 36% of the Moon is Illuminated
Sep 28
Last Quarter
Oct 4
New
Oct 11
First Quarter
Oct 18
Full
Oct 26
Last Quarter

Hourly Weather History & Observations

Time (EDT) Temp. Dew Point Humidity Pressure Visibility Wind Dir Wind Speed Gust Speed Precip Events Conditions
12:53 AM 51.1 °F 48.9 °F 92% 30.29 in 9.0 mi Calm Calm - N/A   Overcast
1:53 AM 48.9 °F 46.9 °F 93% 30.30 in 5.0 mi Calm Calm - N/A   Clear
1:59 AM 48.2 °F 46.4 °F 93% 30.30 in 1.5 mi Calm Calm - N/A   Clear
2:09 AM 48.2 °F 46.4 °F 93% 30.30 in 3.0 mi Calm Calm - N/A   Clear
2:28 AM 48.2 °F 46.4 °F 93% 30.30 in 1.8 mi Calm Calm - N/A   Clear
2:45 AM 46.4 °F 44.6 °F 93% 30.30 in 9.0 mi Calm Calm - N/A   Clear
2:53 AM 48.0 °F 45.0 °F 89% 30.30 in 7.0 mi Calm Calm - N/A   Clear
3:34 AM 46.4 °F 42.8 °F 87% 30.30 in 9.0 mi Calm Calm - N/A   Scattered Clouds
3:42 AM 46.4 °F 44.6 °F 93% 30.30 in 6.0 mi Calm Calm - N/A   Mostly Cloudy
3:48 AM 46.4 °F 42.8 °F 87% 30.30 in 1.5 mi Calm Calm - N/A   Mostly Cloudy
3:51 AM 46.4 °F 44.6 °F 93% 30.30 in 0.8 mi Calm Calm - N/A   Overcast
3:53 AM 46.0 °F 44.1 °F 93% 30.30 in 0.5 mi Calm Calm - N/A Fog Fog
4:53 AM 45.0 °F 43.0 °F 93% 30.31 in 0.8 mi Calm Calm - N/A   Mist
5:45 AM 44.6 °F 42.8 °F 93% 30.31 in 1.5 mi Calm Calm - N/A   Overcast
5:48 AM 44.6 °F 42.8 °F 93% 30.31 in 3.0 mi Calm Calm - N/A   Overcast
5:53 AM 44.1 °F 42.1 °F 93% 30.31 in 1.2 mi Calm Calm - N/A   Overcast
5:55 AM 44.6 °F 42.8 °F 93% 30.31 in 0.8 mi Calm Calm - N/A   Mist
6:35 AM 44.6 °F 42.8 °F 93% 30.32 in 1.2 mi Calm Calm - N/A   Overcast
6:45 AM 42.8 °F 41.0 °F 93% 30.33 in 7.0 mi Calm Calm - N/A   Overcast
6:53 AM 43.0 °F 41.0 °F 93% 30.33 in 9.0 mi Calm Calm - N/A   Mostly Cloudy
7:02 AM 42.8 °F 41.0 °F 93% 30.33 in 6.0 mi Calm Calm - N/A   Scattered Clouds
7:17 AM 42.8 °F 41.0 °F 93% 30.33 in 0.8 mi Calm Calm - N/A   Mist
7:29 AM 44.6 °F 42.8 °F 93% 30.34 in 4.0 mi Calm Calm - N/A   Scattered Clouds
7:53 AM 46.0 °F 44.1 °F 93% 30.34 in 4.0 mi Calm Calm - N/A   Scattered Clouds
8:53 AM 54.0 °F 48.9 °F 83% 30.35 in 10.0 mi Calm Calm - N/A   Clear
9:53 AM 60.1 °F 51.1 °F 72% 30.35 in 10.0 mi Calm Calm - N/A   Clear
10:53 AM 64.9 °F 50.0 °F 58% 30.35 in 10.0 mi North 5.8 mph - N/A   Clear
11:53 AM 66.9 °F 50.0 °F 54% 30.34 in 10.0 mi East 3.5 mph - N/A   Clear
12:53 PM 68.0 °F 48.9 °F 50% 30.32 in 10.0 mi ENE 3.5 mph - N/A   Partly Cloudy
1:53 PM 69.1 °F 48.9 °F 49% 30.31 in 10.0 mi ENE 4.6 mph - N/A   Partly Cloudy
2:53 PM 70.0 °F 46.9 °F 44% 30.29 in 10.0 mi SSW 5.8 mph - N/A   Clear
3:53 PM 71.1 °F 48.0 °F 44% 30.28 in 10.0 mi ENE 8.1 mph - 0.00 in Rain Light Rain
4:53 PM 70.0 °F 48.0 °F 46% 30.27 in 10.0 mi ESE 4.6 mph - 0.00 in   Clear
5:53 PM 68.0 °F 48.0 °F 49% 30.28 in 10.0 mi East 3.5 mph - N/A   Clear
6:53 PM 60.1 °F 52.0 °F 75% 30.28 in 10.0 mi Calm Calm - N/A   Clear
7:53 PM 55.9 °F 52.0 °F 87% 30.28 in 10.0 mi Calm Calm - N/A   Clear
8:53 PM 54.0 °F 50.0 °F 86% 30.28 in 10.0 mi Calm Calm - N/A   Clear
9:53 PM 52.0 °F 48.9 °F 89% 30.28 in 10.0 mi WSW 4.6 mph - N/A   Clear
10:53 PM 50.0 °F 46.9 °F 89% 30.28 in 10.0 mi Calm Calm - N/A   Clear
11:53 PM 48.9 °F 46.0 °F 90% 30.27 in 10.0 mi SW 3.5 mph - N/A   Clear